Skip Page Navigation
NASA JPL Caltech
NASA Logo - Jet Propulsion Laboratory + View the NASA Portal
+ Center for Near-Earth Object Studies
JPL Home Earth Solar System Stars & Galaxies Technology
JPL Solar System Dynamics
BODIES ORBITS EPHEMERIDES TOOLS PHYSICAL DATA DISCOVERY FAQ SITE MAP
IMPORTANT: The SSD Announcement email list is now available. Major changes are coming in the near future, including possible hostname and/or URL changes. To be notified of such changes, subscribe to this email list.

Please visit this page for more details.


JPL Small-Body Database Browser
Search: [ help ]  
71413 (2000 AQ185)
Classification: Main-belt Asteroid          SPK-ID: 2071413
Ephemeris | Orbit Diagram | Orbital Elements | Mission Design | Physical Parameters | Discovery Circumstances ]

[ show orbit diagram ]
Orbital Elements at Epoch 2458600.5 (2019-Apr-27.0) TDB
Reference: JPL 27 (heliocentric ecliptic J2000)
 Element Value Uncertainty (1-sigma)   Units 
e .1496684161105808 3.6019e-08  
a 2.652314609126708 1.2754e-08 au
q 2.25534688255176 9.489e-08 au
i 12.92280386154443 5.7122e-06 deg
node 185.9899777852735 1.7179e-05 deg
peri 287.8142900575053 2.5797e-05 deg
M 126.3266207247557 1.8161e-05 deg
tp 2458046.858851345451
(2017-Oct-20.35885135)
7.9508e-05 TDB
period 1577.741986385453
4.32
1.138e-05
3.116e-08
d
yr
n .2281741901441987 1.6458e-09 deg/d
Q 3.049282335701657 1.4663e-08 au
  Orbit Determination Parameters
   # obs. used (total)      1214  
   data-arc span      10094 days (27.64 yr)  
   first obs. used      1992-01-13  
   last obs. used      2019-09-02  
   planetary ephem.      DE431  
   SB-pert. ephem.      SB431-N16  
   condition code      0  
   norm. resid. RMS      .53706  
   source      ORB  
   producer      Otto Matic  
   solution date      2019-Sep-24 02:40:09  

Additional Information
 Earth MOID = 1.30953 au 
 Jupiter MOID = 2.14238 au 
 T_jup = 3.338 
[ show covariance matrix ]

Ephemeris | Orbit Diagram | Orbital Elements | Mission Design | Physical Parameters | Discovery Circumstances ]

Physical Parameter Table
Parameter Symbol Value Units Sigma Reference Notes
absolute magnitude H 14.1   n/a MPO449451  
diameter diameter 5.874 km 0.127 urn:nasa:pds:neowise_diameters_albedos::2.0[mainbelt] (http://adsabs.harvard.edu/abs/2011ApJ...741...68M)  
geometric albedo albedo 0.142   0.021 urn:nasa:pds:neowise_diameters_albedos::2.0[mainbelt] (http://adsabs.harvard.edu/abs/2011ApJ...741...68M)  

71413 (2000 AQ185)          Discovered 2000-Jan-08 by LINEAR at Socorro
Reference: 20031109/Numbers.arcLast Updated: 2004-04-19

Alternate Designations
 2000 AQ185 = 1992 AZ3 
Ephemeris | Orbit Diagram | Orbital Elements | Mission Design | Physical Parameters | Discovery Circumstances ]
ABOUT SSD CREDITS/AWARDS PRIVACY/COPYRIGHT GLOSSARY LINKS
FirstGov 2019-Oct-15 00:14 UT
(server date/time)  
NASA Home Page
Site Manager:   Ryan S. Park
Webmaster  Alan B. Chamberlin